Location: Ahstedt
(52.2048°N, 10.1060°E)
Time: 00:52:04
(UTC+00:00)

Cosmos 1833 - Pass Details

Date: 18 January 2026
Orbit: 831 x 867 km, 70.9° (Epoch: 18 February)

Event Time Altitude Azimuth Distance (km) Brightness Sun altitude
Exits shadow 06:21:37 - 329° (NNW) 3,073 6.6 -8.6°
Reaches altitude 10° 06:23:04 10° 329° (NNW) 2,522 6.2 -8.4°
Maximum altitude 06:28:54 87° 58° (ENE) 875 4.3 -7.5°
Drops below altitude 10° 06:34:41 10° 150° (SSE) 2,500 7.6 -6.7°
Sets 06:37:07 0° 150° (SSE) 3,429 8.4 -6.4°
